Potomac — WBF7534 — position and weather

sailwx.info

Track history (hours):
 
Tides and Currents Weather Stations Pressure Air Temp Water Temp Dewpoint Dewpoint Depression Visibility Wind Speed Wind Dir Waves Ship Positions

Potomac

Owner: POTOMAC ASSOCIATION, OAKLAND, CA. More information available from US FCC via Universal Licensing System and Coast Guard Vessel Documentation Center.

Last reported at 2018-Jul-15 01:16 UTC. Time now 2018-Jul-17 16:57 UTC.
Position N 37°48' W 122°17'.

Length 51 m; draft 3.1 m.

MMSI: 367166810.

Date/timePositionNaut miles runAvg speedWind from/ knotsBaromVisibWave heightAir tempDewpointWater temp
2018-Jul-15 01:16N 37°48' W 122°17'1 2.0
2018-Jul-15 01:00N 37°48' W 122°17'4 8.2
2018-Jul-15 00:30N 37°50' W 122°22'5 9.3
2018-Jul-15 00:00N 37°52' W 122°27'1 2.5
2018-Jul-14 23:30N 37°51' W 122°29'3 6.1
2018-Jul-14 23:00N 37°50' W 122°25'5 9.9
2018-Jul-14 22:30N 37°48' W 122°19'2 4.2
2018-Jul-14 22:00N 37°48' W 122°17'0 0.0
2018-Jul-14 21:30N 37°48' W 122°17'0 0.0
2018-Jul-14 21:00N 37°48' W 122°17'0 0.0
2018-Jul-14 20:24N 37°48' W 122°17'0 0.0
2018-Jul-14 20:00N 37°48' W 122°17'2 4.9
2018-Jul-14 19:30N 37°48' W 122°20'611.4
2018-Jul-14 19:00N 37°51' W 122°26'2 4.3
2018-Jul-14 18:30N 37°51' W 122°23'5 9.0
2018-Jul-14 18:00N 37°48' W 122°19'2 3.7
2018-Jul-14 17:30N 37°48' W 122°17'  
2018-Jul-09 00:08N 37°48' W 122°17'0 0.1
2018-Jul-09 00:01N 37°48' W 122°17'1 2.8
2018-Jul-08 23:30N 37°48' W 122°19'5 9.7
2018-Jul-08 23:01N 37°49' W 122°24'3 5.6
2018-Jul-08 22:30N 37°48' W 122°21'3 6.8
2018-Jul-08 22:00N 37°48' W 122°17'0 0.0
2018-Jul-08 21:31N 37°48' W 122°17'0 0.0
2018-Jul-08 21:01N 37°48' W 122°17'0 0.0
2018-Jul-08 20:31N 37°48' W 122°17'0 0.0
2018-Jul-08 20:00N 37°48' W 122°17'  
2018-Jul-05 05:44N 37°48' W 122°17'1 4.5
2018-Jul-05 05:30N 37°48' W 122°18'510.7
2018-Jul-05 05:00N 37°49' W 122°24'1 1.6
2018-Jul-05 04:30N 37°49' W 122°25'1 1.3
2018-Jul-05 04:00N 37°49' W 122°25'3 6.0
2018-Jul-05 03:30N 37°48' W 122°21'4 8.2
2018-Jul-05 03:00N 37°47' W 122°16'1 1.3
2018-Jul-05 02:26N 37°48' W 122°17'0 0.0
2018-Jul-05 01:59N 37°48' W 122°17'0 0.0
2018-Jul-05 01:30N 37°48' W 122°17'  
Track history (hours):
 
Tides and Currents Weather Stations Pressure Air Temp Water Temp Dewpoint Dewpoint Depression Visibility Wind Speed Wind Dir Waves Ship Positions

Potomac

Owner: POTOMAC ASSOCIATION, OAKLAND, CA. More information available from US FCC via Universal Licensing System and Coast Guard Vessel Documentation Center.

Last reported at 2018-Jul-15 01:16 UTC. Time now 2018-Jul-17 16:57 UTC.
Position N 37°48' W 122°17'.

Length 51 m; draft 3.1 m.

MMSI: 367166810.

Date/timePositionNaut miles runAvg speedWind from/ knotsBaromVisibWave heightAir tempDewpointWater temp
2018-Jul-15 01:16N 37°48' W 122°17'1 2.0
2018-Jul-15 01:00N 37°48' W 122°17'4 8.2
2018-Jul-15 00:30N 37°50' W 122°22'5 9.3
2018-Jul-15 00:00N 37°52' W 122°27'1 2.5
2018-Jul-14 23:30N 37°51' W 122°29'3 6.1
2018-Jul-14 23:00N 37°50' W 122°25'5 9.9
2018-Jul-14 22:30N 37°48' W 122°19'2 4.2
2018-Jul-14 22:00N 37°48' W 122°17'0 0.0
2018-Jul-14 21:30N 37°48' W 122°17'0 0.0
2018-Jul-14 21:00N 37°48' W 122°17'0 0.0
2018-Jul-14 20:24N 37°48' W 122°17'0 0.0
2018-Jul-14 20:00N 37°48' W 122°17'2 4.9
2018-Jul-14 19:30N 37°48' W 122°20'611.4
2018-Jul-14 19:00N 37°51' W 122°26'2 4.3
2018-Jul-14 18:30N 37°51' W 122°23'5 9.0
2018-Jul-14 18:00N 37°48' W 122°19'2 3.7
2018-Jul-14 17:30N 37°48' W 122°17'  
2018-Jul-09 00:08N 37°48' W 122°17'0 0.1
2018-Jul-09 00:01N 37°48' W 122°17'1 2.8
2018-Jul-08 23:30N 37°48' W 122°19'5 9.7
2018-Jul-08 23:01N 37°49' W 122°24'3 5.6
2018-Jul-08 22:30N 37°48' W 122°21'3 6.8
2018-Jul-08 22:00N 37°48' W 122°17'0 0.0
2018-Jul-08 21:31N 37°48' W 122°17'0 0.0
2018-Jul-08 21:01N 37°48' W 122°17'0 0.0
2018-Jul-08 20:31N 37°48' W 122°17'0 0.0
2018-Jul-08 20:00N 37°48' W 122°17'  
2018-Jul-05 05:44N 37°48' W 122°17'1 4.5
2018-Jul-05 05:30N 37°48' W 122°18'510.7
2018-Jul-05 05:00N 37°49' W 122°24'1 1.6
2018-Jul-05 04:30N 37°49' W 122°25'1 1.3
2018-Jul-05 04:00N 37°49' W 122°25'3 6.0
2018-Jul-05 03:30N 37°48' W 122°21'4 8.2
2018-Jul-05 03:00N 37°47' W 122°16'1 1.3
2018-Jul-05 02:26N 37°48' W 122°17'0 0.0
2018-Jul-05 01:59N 37°48' W 122°17'0 0.0
2018-Jul-05 01:30N 37°48' W 122°17'  

Dump ship's entire track history